FW4844 Weather Reports


Display with metric or nautical units.
time (UTC)temp
F
wind
direction
speed
MPH
gust
MPH
rain 1hr
in
rain 24hr
in
rain mn
in
humidity
%
barometer
mb
20260506190621 42 189 2.0 7.0 0.05 1.16 1.01 98 1004.0
20260506190342 42 124 2.0 4.0 0.06 1.16 1.01 98 1004.0
20260506185621 42 144 2.0 5.0 0.06 1.16 1.01 98 1004.1
20260506185122 42 146 2.0 5.0 0.07 1.16 1.01 98 1004.0
20260506184620 42 128 1.0 6.0 0.07 1.16 1.01 98 1004.1
20260506184346 42 124 1.0 6.0 0.06 1.15 1.00 98 1004.1
20260506183616 42 123 2.0 6.0 0.06 1.17 1.00 98 1004.1
20260506183338 42 119 2.0 6.0 0.07 1.17 1.00 98 1004.0
20260506182615 42 128 2.0 7.0 0.06 1.16 0.99 98 1004.1
20260506182115 42 130 2.0 7.0 0.06 1.15 0.98 98 1004.2
20260506181615 42 131 2.0 4.0 0.05 1.14 0.98 98 1004.4
20260506181336 41 107 2.0 4.0 0.06 1.14 0.97 98 1004.6
20260506180620 42 103 1.0 3.0 0.06 1.13 0.96 98 1004.6
20260506180113 42 84 1.0 3.0 0.06 1.12 0.95 98 1004.5
20260506175613 42 84 0.0 2.0 0.08 1.12 0.95 98 1004.4
20260506175111 42 83 0.0 2.0 0.08 1.11 0.94 98 1004.5
20260506174611 42 83 1.0 3.0 0.10 1.11 0.94 98 1004.5
20260506174109 42 83 1.0 3.0 0.11 1.11 0.94 98 1004.5
20260506173607 42 84 1.0 3.0 0.12 1.11 0.94 98 1004.5
20260506173330 42 84 1.0 3.0 0.13 1.10 0.93 98 1004.5
20260506172827 42 82 1.0 3.0 0.14 1.10 0.93 98 1004.5
20260506172327 42 82 1.0 4.0 0.14 1.09 0.92 98 1004.6
20260506171605 42 82 1.0 4.0 0.16 1.09 0.92 97 1004.7
20260506171105 42 55 1.0 3.0 0.16 1.08 0.91 97 1004.7
20260506170605 42 54 0.0 2.0 0.16 1.07 0.90 97 1004.8
20260506170327 42 54 1.0 3.0 0.16 1.06 0.89 98 1004.8
20260506165605 42 54 1.0 3.0 0.14 1.04 0.87 97 1004.8
20260506165102 42 55 1.0 3.0 0.15 1.03 0.86 98 1004.7
20260506164604 42 55 1.0 3.0 0.14 1.01 0.84 98 1004.7
20260506164315 42 54 1.0 4.0 0.13 1.00 0.83 98 1004.7
20260506163557 42 54 1.0 4.0 0.13 0.99 0.82 98 1004.6
20260506163100 42 53 1.0 4.0 0.12 0.97 0.80 98 1004.7
20260506162557 42 53 2.0 7.0 0.12 0.96 0.79 98 1004.7
20260506162057 42 49 1.0 7.0 0.12 0.95 0.78 98 1004.6
20260506161558 42 63 1.0 2.0 0.12 0.93 0.76 98 1004.8
20260506161054 42 63 1.0 3.0 0.12 0.92 0.75 98 1004.8
20260506160555 42 63 0.0 3.0 0.12 0.91 0.74 98 1004.8
20260506160054 42 61 1.0 2.0 0.13 0.90 0.73 98 1004.9
20260506155555 42 61 0.0 2.0 0.14 0.90 0.73 98 1004.9
20260506155055 42 61 1.0 3.0 0.13 0.88 0.72 98 1005.1
20260506154556 42 61 2.0 5.0 0.13 0.87 0.71 98 1005.0
20260506154055 42 61 2.0 5.0 0.14 0.87 0.70 98 1004.9
20260506153820 42 90 2.0 6.0 0.14 0.86 0.69 97 1004.8
20260506153053 42 115 1.0 6.0 0.14 0.85 0.68 97 1004.9
20260506152812 42 139 2.0 8.0 0.14 0.84 0.67 97 1005.0
20260506152052 42 140 2.0 8.0 0.14 0.83 0.66 97 1005.1
20260506151554 42 88 2.0 9.0 0.14 0.81 0.64 98 1005.1
20260506151053 42 122 3.0 9.0 0.14 0.80 0.63 98 1005.0
20260506150553 42 137 2.0 8.0 0.15 0.79 0.62 97 1005.1
20260506150051 42 132 2.0 9.0 0.14 0.77 0.60 97 1005.2
20260506145806 43 117 3.0 10.0 0.14 0.76 0.59 97 1005.2
20260506145048 43 134 3.0 10.0 0.14 0.75 0.58 97 1005.2
20260506144813 43 121 3.0 11.0 0.13 0.74 0.57 98 1005.2
20260506144049 43 99 3.0 11.0 0.13 0.73 0.56 98 1004.9
20260506143548 43 123 3.0 8.0 0.13 0.72 0.55 98 1005.1
20260506143048 43 116 3.0 8.0 0.12 0.71 0.54 97 1005.0
20260506142049 43 120 2.0 8.0 0.12 0.69 0.52 97 1005.2
20260506141814 43 136 3.0 8.0 0.11 0.67 0.50 98 1005.1
20260506141049 43 140 3.0 10.0 0.11 0.66 0.49 98 1005.1
20260506140549 44 98 3.0 10.0 0.10 0.64 0.47 97 1005.2
20260506140314 44 120 4.0 9.0 0.10 0.63 0.46 97 1005.0
20260506135807 44 98 4.0 9.0 0.11 0.62 0.45 97 1005.1
20260506135306 44 130 4.0 9.0 0.12 0.61 0.45 97 1005.1
20260506134809 44 121 3.0 9.0 0.13 0.61 0.44 97 1005.1
20260506134045 44 156 4.0 12.0 0.13 0.60 0.43 97 1005.0
20260506133544 44 76 3.0 12.0 0.13 0.59 0.42 98 1004.9
20260506133045 45 149 3.0 8.0 0.14 0.59 0.42 97 1005.2
20260506132544 45 154 2.0 8.0 0.13 0.58 0.41 97 1005.3
20260506132044 45 142 2.0 9.0 0.13 0.57 0.40 98 1005.3
20260506131544 45 115 2.0 9.0 0.14 0.56 0.39 98 1005.3
20260506131045 45 151 2.0 6.0 0.14 0.55 0.38 98 1005.5
20260506130544 45 166 2.0 8.0 0.14 0.54 0.37 97 1005.4
20260506130044 46 161 2.0 8.0 0.15 0.53 0.36 97 1005.3
20260506125544 46 164 2.0 5.0 0.14 0.51 0.34 98 1005.6
20260506125044 46 119 1.0 4.0 0.14 0.49 0.32 97 1005.4
20260506124542 46 117 1.0 4.0 0.14 0.48 0.31 98 1005.4
20260506124044 46 142 2.0 4.0 0.14 0.47 0.30 98 1005.3
20260506123541 46 152 1.0 4.0 0.14 0.46 0.29 98 1005.5
20260506123035 46 188 1.0 4.0 0.14 0.45 0.29 98 1005.5
20260506122747 45 52 1.0 4.0 0.13 0.44 0.28 97 1005.5
20260506122238 45 316 1.0 3.0 0.13 0.43 0.27 97 1005.7
20260506121734 45 316 1.0 3.0 0.12 0.42 0.25 97 1005.8
20260506121013 45 317 3.0 14.0 0.12 0.41 0.24 97 1005.9
20260506120510 44 317 4.0 15.0 0.11 0.40 0.24 97 1005.8
20260506120229 45 252 3.0 15.0 0.09 0.38 0.21 97 1006.4
20260506115510 45 250 2.0 6.0 0.07 0.36 0.20 97 1005.8
20260506115009 45 214 2.0 6.0 0.07 0.35 0.18 97 1005.8
20260506114508 45 252 2.0 4.0 0.06 0.34 0.17 97 1005.6
20260506114009 45 268 1.0 5.0 0.05 0.32 0.16 97 1005.7
20260506113508 45 350 1.0 5.0 0.05 0.32 0.15 97 1005.4
20260506113009 45 244 1.0 4.0 0.05 0.31 0.14 97 1005.6
20260506112509 45 244 2.0 5.0 0.05 0.31 0.14 97 1005.7
20260506112007 45 243 2.0 5.0 0.05 0.30 0.13 97 1005.8
20260506111506 45 237 2.0 5.0 0.05 0.30 0.13 97 1005.7
20260506111006 45 258 1.0 2.0 0.04 0.29 0.12 97 1005.7
20260506110505 45 258 1.0 7.0 0.04 0.29 0.12 97 1005.7
20260506110007 45 258 2.0 7.0 0.04 0.29 0.12 97 1005.8
20260506105007 45 222 3.0 8.0 0.03 0.28 0.11 97 1006.0
20260506104504 45 222 4.0 8.0 0.04 0.28 0.11 97 1005.9
20260506104005 45 344 4.0 9.0 0.03 0.28 0.11 97 1005.5
20260506103725 45 263 5.0 10.0 0.03 0.28 0.10 97 1006.4
20260506103221 46 255 3.0 10.0 0.02 0.27 0.09 97 1006.4
20260506102503 46 258 2.0 8.0 0.02 0.27 0.09 97 1006.1
20260506102003 46 346 1.0 3.0 0.01 0.26 0.08 97 1005.7
20260506101500 46 347 0.0 2.0 0.01 0.26 0.08 97 1005.6
20260506100958 46 347 0.0 2.0 0.01 0.26 0.08 97 1005.5
20260506100458 46 347 0.0 2.0 0.01 0.26 0.08 97 1005.6
20260506100222 46 347 0.0 3.0 0.01 0.26 0.08 97 1005.6
20260506095459 46 347 0.0 3.0 0.01 0.26 0.08 97 1005.6
20260506094959 46 347 1.0 3.0 0.01 0.26 0.08 97 1005.7
20260506094452 46 347 1.0 3.0 0.01 0.25 0.07 97 1005.7
20260506094208 46 347 1.0 3.0 0.02 0.25 0.07 96 1005.7
20260506093442 46 347 1.0 3.0 0.02 0.25 0.07 96 1005.9
20260506092940 46 348 1.0 3.0 0.02 0.25 0.07 96 1005.9
20260506092704 46 349 1.0 4.0 0.02 0.25 0.07 96 1005.6
20260506091940 46 355 1.0 5.0 0.02 0.25 0.07 96 1005.7
20260506091440 46 0 2.0 5.0 0.02 0.25 0.07 96 1006.0
20260506090941 46 325 1.0 5.0 0.02 0.25 0.07 96 1006.0
20260506090438 46 286 1.0 5.0 0.02 0.25 0.07 96 1005.9
20260506090159 46 349 2.0 4.0 0.02 0.25 0.07 96 1006.0
20260506085436 46 329 3.0 8.0 0.02 0.25 0.07 96 1006.2
20260506084937 46 323 5.0 12.0 0.02 0.25 0.07 96 1006.4
20260506084434 46 0 4.0 12.0 0.01 0.24 0.06 96 1007.2
20260506083932 46 268 2.0 6.0 0.00 0.23 0.05 96 1006.7
20260506083653 46 0 2.0 8.0 0.00 0.23 0.05 96 1006.0
20260506082928 46 304 2.0 8.0 0.00 0.23 0.05 96 1006.5
20260506082428 46 303 2.0 4.0 0.00 0.23 0.05 96 1006.5
20260506081929 46 302 1.0 4.0 0.00 0.23 0.05 96 1006.5
20260506081424 46 285 2.0 4.0 0.00 0.23 0.05 96 1006.4
20260506081142 47 285 1.0 4.0 0.00 0.23 0.05 95 1006.6
20260506080422 47 337 1.0 5.0 0.00 0.23 0.05 95 1006.2
20260506080146 47 338 3.0 10.0 0.00 0.23 0.05 96 1006.4
20260506073418 47 319 3.0 11.0 0.00 0.23 0.05 96 1006.5
20260506072919 47 63 3.0 11.0 0.00 0.23 0.05 96 1006.2
20260506072418 47 250 3.0 8.0 0.00 0.23 0.05 96 1006.8
20260506072139 47 321 3.0 8.0 0.00 0.23 0.05 96 1006.6
20260506071415 47 315 3.0 7.0 0.00 0.23 0.05 96 1006.7
20260506070914 48 279 2.0 6.0 0.00 0.23 0.05 96 1006.9
20260506070411 48 307 1.0 5.0 0.00 0.23 0.05 97 1006.5
20260506062404 48 254 3.0 8.0 0.01 0.23 0.05 97 1006.2
20260506061903 48 252 3.0 8.0 0.01 0.23 0.05 97 1006.1
20260506061404 48 251 3.0 7.0 0.01 0.23 0.05 97 1006.2
20260506060904 48 269 4.0 8.0 0.01 0.23 0.05 97 1006.2
20260506060623 48 313 5.0 12.0 0.01 0.23 0.05 97 1006.4
20260506051358 49 269 3.0 7.0 0.03 0.22 0.04 97 1007.0
20260506051120 49 244 3.0 6.0 0.03 0.22 0.04 97 1007.0
20260506050358 49 256 3.0 7.0 0.04 0.22 0.04 97 1006.9
20260506044858 49 277 3.0 8.0 0.03 0.21 0.03 96 1007.0
20260506044357 49 265 3.0 8.0 0.03 0.21 0.03 96 1007.5
20260506043852 49 262 3.0 7.0 0.03 0.21 0.03 96 1007.1
20260506043351 49 261 2.0 7.0 0.03 0.21 0.03 96 1007.3
20260506042852 49 325 2.0 8.0 0.03 0.21 0.03 96 1007.0
20260506042352 49 252 3.0 8.0 0.03 0.21 0.03 96 1007.4
20260506041849 49 281 3.0 8.0 0.02 0.20 0.02 96 1007.4
20260506041350 49 258 3.0 8.0 0.02 0.19 0.01 96 1007.4
20260506040850 49 257 3.0 8.0 0.02 0.19 0.01 96 1007.5
20260506040350 49 259 2.0 8.0 0.01 0.18 0.00 96 1007.4
20260506040117 49 315 1.0 3.0 0.01 0.18 0.18 96 1007.0
20260506035620 49 319 1.0 3.0 0.01 0.18 0.18 96 1006.9
20260506035112 49 319 1.0 3.0 0.01 0.18 0.18 95 1007.0
20260506034347 49 338 2.0 6.0 0.02 0.18 0.18 95 1006.7
20260506033845 49 338 2.0 6.0 0.02 0.18 0.18 95 1006.6
20260506033341 49 317 2.0 5.0 0.02 0.18 0.18 95 1007.2
20260506032839 50 26 2.0 6.0 0.02 0.18 0.18 94 1006.9
20260506032340 50 315 3.0 6.0 0.02 0.18 0.18 94 1006.9
20260506031840 50 31 2.0 4.0 0.02 0.18 0.18 95 1006.6
20260506031339 50 30 1.0 4.0 0.01 0.17 0.17 94 1006.9
20260506030840 50 269 2.0 6.0 0.02 0.17 0.17 94 1007.2
20260506030338 50 263 2.0 6.0 0.02 0.17 0.17 93 1007.1
20260506025838 51 267 1.0 4.0 0.02 0.17 0.17 93 1007.0
20260506025555 51 263 3.0 9.0 0.02 0.17 0.17 92 1006.9
20260506024838 51 247 3.0 9.0 0.02 0.17 0.17 92 1007.1
20260506024556 51 262 5.0 14.0 0.01 0.16 0.17 92 1007.2
20260506023834 52 246 6.0 15.0 0.01 0.16 0.16 91 1006.8
20260506023608 52 236 6.0 15.0 0.01 0.16 0.16 91 1007.0
20260506022833 53 338 6.0 17.0 0.01 0.16 0.16 91 1006.6
20260506022334 53 331 7.0 17.0 0.01 0.16 0.16 91 1006.5
20260506021335 54 234 7.0 17.0 0.01 0.16 0.16 92 1006.5
20260506020834 54 287 7.0 17.0 0.00 0.15 0.15 92 1006.4
20260506020551 55 265 6.0 17.0 0.00 0.15 0.15 94 1006.1
20260506015833 55 272 5.0 13.0 0.00 0.15 0.15 94 1006.0
20260506015331 55 246 5.0 13.0 0.00 0.15 0.15 95 1005.9
20260506014830 55 240 4.0 9.0 0.00 0.15 0.15 95 1005.8
20260506014329 55 267 4.0 8.0 0.00 0.15 0.15 95 1005.8
20260506013330 56 254 4.0 10.0 0.00 0.15 0.15 94 1006.0
20260506012828 56 256 4.0 10.0 0.00 0.15 0.15 94 1005.9
20260506012328 56 240 3.0 9.0 0.00 0.15 0.15 94 1005.7
20260506011828 56 268 2.0 9.0 0.01 0.15 0.15 94 1005.5
20260506011327 56 250 2.0 9.0 0.01 0.15 0.15 95 1005.7
20260506010827 56 242 3.0 9.0 0.01 0.15 0.15 95 1005.7
20260506010328 56 278 4.0 10.0 0.01 0.15 0.15 95 1005.6
20260506005828 56 286 5.0 12.0 0.01 0.15 0.15 95 1005.8
20260506005324 56 221 4.0 12.0 0.01 0.15 0.15 95 1005.7
20260506004824 56 254 3.0 8.0 0.01 0.15 0.15 95 1005.7
20260506004323 55 261 3.0 9.0 0.01 0.15 0.15 95 1005.7
20260506003824 55 284 4.0 9.0 0.01 0.15 0.15 95 1005.6
20260506003323 55 272 3.0 8.0 0.01 0.15 0.15 95 1005.4
20260506002824 55 257 2.0 7.0 0.01 0.15 0.15 95 1005.3
20260506002324 56 144 2.0 7.0 0.01 0.15 0.15 95 1004.4
20260506001824 56 277 2.0 7.0 0.00 0.14 0.14 95 1004.8
20260506001324 55 254 1.0 4.0 0.00 0.14 0.14 94 1005.0
20260506000823 56 236 1.0 4.0 0.00 0.14 0.14 94 1004.8
20260506000324 56 233 1.0 4.0 0.00 0.14 0.14 93 1004.7
20260505235823 56 231 2.0 5.0 0.00 0.14 0.14 93 1004.7
20260505235321 56 230 2.0 5.0 0.00 0.14 0.14 92 1004.7
20260505234821 56 236 2.0 5.0 0.00 0.14 0.14 92 1004.7
20260505234320 57 252 2.0 5.0 0.00 0.14 0.14 92 1004.6
20260505234038 57 244 3.0 7.0 0.00 0.14 0.14 91 1004.7
20260505233537 57 238 2.0 7.0 0.00 0.14 0.14 91 1004.5
20260505232817 57 253 2.0 5.0 0.00 0.14 0.14 90 1004.2
20260505232318 57 240 2.0 5.0 0.00 0.14 0.14 90 1004.1
20260505231817 58 237 3.0 6.0 0.00 0.14 0.14 89 1004.1
20260505231318 58 216 4.0 7.0 0.00 0.14 0.14 88 1004.2
20260505230817 58 227 4.0 8.0 0.00 0.14 0.14 88 1004.1
20260505230318 58 215 5.0 8.0 0.00 0.14 0.14 88 1004.2
20260505225817 58 232 5.0 8.0 0.00 0.14 0.14 88 1004.1
20260505225317 58 221 5.0 8.0 0.00 0.14 0.14 88 1004.2
20260505224817 58 208 4.0 9.0 0.00 0.14 0.14 88 1004.2
20260505224316 58 230 5.0 10.0 0.00 0.14 0.14 88 1004.0
20260505224036 58 226 5.0 10.0 0.00 0.14 0.14 87 1004.0
20260505223314 59 217 6.0 11.0 0.00 0.14 0.14 87 1003.9
20260505223032 59 229 5.0 11.0 0.00 0.14 0.14 87 1004.0
20260505222311 59 214 6.0 11.0 0.00 0.14 0.14 88 1003.9
20260505221813 59 240 6.0 11.0 0.00 0.14 0.14 89 1004.0
20260505221312 58 215 6.0 11.0 0.00 0.14 0.14 88 1003.8
20260505220806 58 231 5.0 10.0 0.00 0.14 0.14 88 1003.8
20260505220300 58 198 5.0 10.0 0.00 0.14 0.14 89 1003.8
20260505215750 58 221 5.0 10.0 0.00 0.14 0.14 89 1003.6
20260505215244 58 273 5.0 11.0 0.00 0.14 0.14 89 1003.6
20260505214734 58 215 5.0 16.0 0.00 0.14 0.14 89 1003.5
20260505214227 58 209 7.0 16.0 0.00 0.14 0.14 89 1003.7
20260505213720 58 226 8.0 18.0 0.01 0.14 0.14 90 1003.7
20260505213210 58 200 9.0 18.0 0.01 0.14 0.14 90 1003.7
20260505212704 59 207 9.0 18.0 0.02 0.14 0.14 91 1003.7
20260505211648 59 227 8.0 17.0 0.03 0.14 0.14 92 1003.7
20260505211143 58 236 7.0 17.0 0.07 0.14 0.14 93 1003.7
20260505210636 58 221 7.0 11.0 0.10 0.14 0.14 93 1003.6
20260505210127 57 246 7.0 13.0 0.11 0.14 0.14 93 1003.6
20260505205620 57 240 7.0 14.0 0.11 0.14 0.14 92 1003.5
20260505205115 58 241 7.0 14.0 0.11 0.14 0.14 91 1003.5
20260505204604 58 212 7.0 14.0 0.11 0.14 0.14 90 1003.5
20260505204058 58 235 9.0 20.0 0.11 0.14 0.14 90 1003.4
20260505203552 58 257 10.0 23.0 0.10 0.13 0.13 88 1003.5
20260505203042 58 236 9.0 23.0 0.10 0.13 0.13 88 1003.4
20260505202536 58 230 8.0 20.0 0.09 0.12 0.12 88 1003.4
20260505202030 58 223 7.0 15.0 0.08 0.11 0.11 86 1003.1
20260505201520 60 250 7.0 19.0 0.07 0.10 0.10 81 1003.1
20260505201014 63 266 7.0 19.0 0.03 0.06 0.06 74 1002.8
20260505200508 64 251 8.0 17.0 0.00 0.03 0.03 65 1002.7
20260505195457 64 257 5.0 14.0 0.00 0.03 0.03 72 1002.4
20260505194955 64 233 6.0 15.0 0.00 0.03 0.03 77 1002.1
20260505194453 64 227 7.0 15.0 0.00 0.03 0.03 76 1002.1
20260505193951 64 230 6.0 13.0 0.01 0.03 0.03 75 1001.8
20260505193451 64 200 6.0 17.0 0.02 0.03 0.03 78 1001.8
20260505192951 64 226 7.0 17.0 0.02 0.03 0.03 77 1001.9
20260505192451 65 227 6.0 13.0 0.02 0.03 0.03 74 1001.9
20260505191951 66 218 6.0 12.0 0.02 0.03 0.03 66 1001.9
20260505191719 66 254 8.0 16.0 0.02 0.03 0.03 64 1001.8
20260505190951 66 248 8.0 17.0 0.02 0.03 0.03 67 1002.0